Погода в Дайа-Амгате

Россия / Республика Саха (Якутия)     61°54′35″N   133°36′17″E
темп.,
°C
ветер,
м/с
пор.,
м/с
влажн.,
%
обл.,
%
осадки,
мм/ч
давл.,
гПа
погр.,
м
1 марта, пн
пн100:00−27зюз2399100 0.0 102378
03:00−28з2498100 0.1 1024107
06:00−30з2298100 0.0 102429
09:00−27зюз2596100 0.0 1025351
12:00−25зюз3488100 0.1 1025809
15:00−25з2487100 0.1 1024911
18:00−27з2397100 0.1 102676
21:00−28з1298100 0.1 102623
2 марта, вт
вт200:00−29з229898 0.0 102627
03:00−31з129998 0.1 102619
06:00−33з1210099 0.0 102619
09:00−31з129898 0.0 102697
12:00−28з238999 0.0 1025517
15:00−27з239199 0.1 1025638
18:00−28з1199100 0.1 102519
21:00−29з1199100 0.2 102526
3 марта, ср
ср300:00−29зсз1198100 0.1 102521
03:00−30з1198100 0.1 102420
06:00−30зсз1198100 0.1 102319
09:00−29з1296100 0.1 1022167
12:00−27зсз1287100 0.1 1021578
15:00−27зсз2288100 0.1 1019748
18:00−29сз1197100 0.1 101819
21:00−30зсз2298100 0.1 101847
4 марта, чт
чт400:00−30зсз2498100 0.1 1017176
03:00−31з2498100 0.1 1016190
06:00−32з2598100 0.1 1016240
09:00−31зсз3594100 0.1 1017447
12:00−30зсз3489100 0.0 1018694
15:00−29з3588100 0.1 1018799
18:00−33з2396100 0.0 101950
21:00−35зсз2498100 0.0 1020106
5 марта, пт
пт500:00−35з379796 0.0 1021209
03:00−35з389598 0.0 1021326
06:00−36зсз3895100 0.0 1022348
09:00−36зсз3793100 0.0 1022350
12:00−33зсз3691100 0.0 1022419
15:00−31зсз3791100 0.0 1023487
18:00−31зсз3894100 0.0 1023483
21:00−31зсз3896100 0.1 1023479